sat.trackr.live / text

‹ back to catalog

STARLINK-38037

NORAD 69750 · 2026-150M

PAYLOAD ACTIVE UNKNOWN

§ Identity

Operator
Country
US
Launch date
2026-07-02
Launch site
AFWTR
Launch vehicle
Mass (kg)
RCS (m²)

Purposes: comms

External: N2YO · Heavens-Above · Gunter

§ Orbital elements

Epoch: 2026-09-19T23:50:24.103392Z

Period
93.91 min
Inclination
97.2830°
Eccentricity
0.0001023
Mean motion
15.33451479 rev/d
Perigee alt
464.8 km
Apogee alt
466.2 km
Semi-major
6,843.7 km
B*
4.1531e-4
RAAN
101.8569°
Arg perigee
86.1231°
Mean anomaly
274.0128°
Rev number
1,365

§ Raw data

STARLINK-380371 69750U 26150M   26262.99333453  .00013359  00000+0  41531-3 0  99952 69750  97.2830 101.8569 0001023  86.1231 274.0128 15.33451479 13656

JSON: /api/v1/satellites/69750 · /tle

For live sub-satellite position, see the globe view (requires WebGL).

§ Visibility from observer

Set your observer location to see the next 7 days of passes ≥ 10°. The values pass through the URL so the page stays shareable.

No JS? Fill the form by hand. The geolocation button needs JavaScript.